Location: Miami, Florida
(25.6830°N, 80.1700°W)
Time: 03:41:09
(UTC-04:00)

Hubble Space Telescope - Pass Details

Date: 17 November 2017
Orbit: 537 x 541 km, 28.5° (Epoch: 23 November)

Event Time Altitude Azimuth Distance (km) Brightness Sun altitude
Exits shadow 05:38:07 40° 123° (ESE) 795 2.0 -27.3°
Drops below altitude 10° 05:41:14 10° 85° (E) 1,780 4.4 -26.6°
Sets 05:43:33 0° 80° (E) 2,672 5.4 -26.1°
